Regional Weather Roundup
Issued by NWS Newport/Morehead, NC

Current Version | Previous Version | Graphics & Text | Print | Product List | Glossary Off
Versions: 1 2 3 4 5 6 7 8 9 10 11 12 13 14 15 16 17 18 19 20 21 22 23 24 25 26 27 28 29 30 31 32 33 34 35 36 37 38 39 40 41 42 43 44 45 46 47 48 49 50

000
ASUS42 KMHX 211013
RWRMHX
WEATHER ROUNDUP FOR EASTERN NORTH CAROLINA
NATIONAL WEATHER SERVICE NEWPORT/MOREHEAD CITY NC
500 AM EST TUE FEB 21 2017

NOTE: "FAIR" INDICATES FEW OR NO CLOUDS BELOW 12,000 FEET
WITH NO SIGNIFICANT WEATHER AND/OR OBSTRUCTIONS TO VISIBILITY

NCZ015>017-031-032-045>047-102-103-211100-
NORTH COAST

CITY           SKY/WX    TMP DP  RH WIND       PRES   REMARKS
EDENTON        CLOUDY    40  37  91 CALM      30.29R
ELIZABETH CITY PTCLDY    43  41  93 NE6       30.28R
KITTY HAWK     NOT AVBL
MANTEO         CLOUDY    48  40  75 E9        30.26S

$$

NCZ045>047-081-094-103-104-211100-
CENTRAL COAST

CITY           SKY/WX    TMP DP  RH WIND       PRES   REMARKS
FRISCO         CLOUDY    52  46  80 N6        30.23S

$$

NCZ095-097-098-100-101-211100-
SOUTHERN COAST

CITY           SKY/WX    TMP DP  RH WIND       PRES   REMARKS
BEAUFORT       PTCLDY    49  46  90 NE5       30.23F
CEDAR ISLAND   NOT AVBL
JACKSONVILLE   PTCLDY    46  43  89 N6        30.24S
PINEY ISLAND   MOSUNNY  N/A N/A N/A NE7       30.24S
WILMINGTON     PTCLDY    44  42  93 NE7       30.23R


$$

NCZ011>013-027>030-043-044-078>080-089-090>093-098-211100-
COASTAL PLAIN

CITY           SKY/WX    TMP DP  RH WIND       PRES   REMARKS
AHOSKIE          N/A     37  35  95 CALM      30.29R
CLINTON        PTCLDY    47  42  81 E3        30.26R
ELIZABETHTOWN  MOCLDY    48  41  77 CALM      30.24R
GOLDSBORO      CLOUDY    43  41  93 CALM      30.24S
GREENVILLE     CLOUDY    37  37 100 CALM      30.27S
HAVELOCK       PTCLDY    47  43  86 N5        30.25F
KENANSVILLE    NOT AVBL
KINSTON        PTCLDY    41  37  87 CALM      30.26F
NEW BERN       PTCLDY    44  42  93 NE5       30.26S
RICHLANDS      CLOUDY    41  40  96 NE5       30.25
ROCKY MOUNT    CLOUDY    41  38  89 CALM      30.27S
WASHINGTON     CLOUDY    39  37  92 CALM      30.27S
WHITEVILLE     CLOUDY    50  44  79 NE3       30.22R

$$

AMZ130-135-150-152-154-156-158-170-250-252-270-ANZ085-086-088-633-658-670-211100-
MARINE OBSERVATIONS

STATION/POSITION TIME  TEMP    WIND        PRES    WAVE   SWELL
                       AIR SEA DIR/SP/G            HT/PER HT/PER
                 (UTC) (F)     (DEG/KT/KT) (MB)    (FT/S) (FT/S)
CHESAPEAKE LIGHT NOT AVBL
64 E VA BEACH    0950   52 53   70/ 16/ 19 1024.4    4/ 6   2/10
DUCK             0942   48 48   20/  6/  7 1024.4
2 E DUCK         1000      49                N/A     3/ 5
OREGON INLET     0942   49 51   30/  9/ 12 1024.2
13E OREGON INLT  NOT AVBL
HATTERAS CG      0942   53 57   20/  9/ 13 1023.1
DIAMOND BUOY     0950   62 76   30/ 14/ 19 1022.7    8/ 9   7/ 9
CAPE LOOKOUT     1000   52      20/  9/ 11 1023.0
BEAUFORT LAB     0942   48 53   20/  5/  8 1022.6
30 SE NEW RVR IN 0908   58      50/ 14/ 19 1023.0
30 SE NEW RVR IN 0943      66                N/A     4/ 6
27 SE WRIGHTSVLE 0908   60 64   70/ 16/ 21 1021.9
5 SE WRIGHTSVLE  0908   55 56   60/ 12/ 21 1023.0
225 S CAPE HAT   0950   66 71   40/ 14/ 19 1020.5    5/ 6   2/13
41 SE CHARLESTON 0950   68 66   80/ 16/ 19 1020.3    3/ 6

$$



USA.gov is the U.S. government's official web portal to all federal, state and local government web resources and services.